Zurück zum Katalog

BREEZE-M DEB

AktivHEO
NORAD 35540·DEBRIS·🇷🇺 Russia

Gestartet Feb 28, 2006 von Baikonur Cosmodrome

Loading…

Nächste Überflüge (nächste 24 Stunden)

TLE

AktuellSource: Space-Track

Epoche: Sep 14, 2026, 11:09 UTC

1 35540U 06006CH  26257.46470654  .00001050  00000-0  23133-2 0  9997
2 35540  52.1652 252.3930 4955039 184.9427 345.9271  5.40729218 47396

Verfolge BREEZE-M DEB in Echtzeit mit AllMySat

Download on the App Store